GAOFEN-6

Last updated on Wed Sep 17 2025 00:02:31 GMT+0000 (Coordinated Universal Time)

1 43484U 18048A 25259.64020453 .00000668 00000+0 10265-3 0 9997 2 43484 97.8146 326.7716 0011669 344.5342 15.5510 14.76604084393024
UTC large
Height (km)
Speed (km/s)
/
Latitude / Longitude
Inclination (degrees)
Orbital Period (minutes)
Azimuth
Elevation
Range (km)
Doppler Factor

Next 0 passes for location: London (51.5072 / 0.1276)

Sorry there are no passes over London.